Weather in Dubki

Russia / Yaroslavl Oblast     56°42′27″N   39°08′07″E
temp.,
°C
wind,
m/s
gust,
m/s
humid.,
%
clouds,
%
prec.,
mm/h
press.,
hPa
HPBL,
m
29 july, thu
thu2900:00+17s51186100 0.0 1010382
03:00+16se41093100 0.1 1008436
06:00+16se2593100 0.0 1006281
09:00+17sw119298 0.1 1006281
12:00+22wnw346878 0.1 10051034
15:00+24wnw465887 0.3 10051470
18:00+25w365342 0.1 10041116
21:00+20wsw357397 0.1 100479
30 july, fri
fri3000:00+18wsw3582100 0.2 100482
03:00+17wsw3584100 0.2 100487
06:00+19wsw3674100 0.0 1004180
09:00+20wsw3674100 0.1 1005320
12:00+20ssw3679100 0.1 1005404
15:00+24s446328 0.1 10031056
18:00+24wsw35599 0.4 10021165
21:00+18w36920 1.1 1003109
31 july, sat
sat3100:00+16wsw369468 0.0 100395
03:00+15wsw4119453 0.0 1002204
06:00+16wsw3108783 0.0 1003275
09:00+21wsw711554 0.0 10031166
12:00+22w8124199 0.0 10032054
15:00+24wsw81440100 0.0 10042418
18:00+23w6114761 0.0 10041865
21:00+18w410655 0.0 1006282
1 august, sun
sun100:00+15wsw388396 0.0 1007134
03:00+14wsw498926 0.0 1009149
06:00+16wsw378211 0.0 1010192
09:00+22wsw4557100 0.0 1010674
12:00+23w3454100 0.0 10101072
15:00+19s2385100 1.3 101073
18:00+18sse61290100 1.7 1007264
21:00+19ssw71492100 6.6 1006462
2 august, mon
mon200:00+18sw3798100 0.4 1007202
03:00+16w389772 0.4 1008168
06:00+16wsw249216 0.0 100989
09:00+22ssw34675 0.0 1008457
12:00+27ssw464749 0.0 10071693
15:00+28s4641100 0.0 10061873
18:00+24wsw5763100 0.6 1002256
21:00+17sse4694100 10.5 1004104